Preview of NWS' New Version of Forecast
This preview is not operational and should not be used for support decisions.
Latest weather observations around

Philadelphia, Philadelphia International Airport (KPHL)

Using English Units (Switch to International System of Units)
Date/ Time (EDT) Wind (mph) Vis. (mi) Weather Sky Cond. Temp (°F) Rel. Humidity Wind Chill (°F) Heat Index (°F) Pressure Precip. (in)
Air Dwpt 6 hour Altimeter (inHg) Sea level (inHg) 1 hr 3 hr 6 hr
Max Min
Apr 23 02:54 SW 5 10 Clear CLR 47 39     74% 45   30.41 30.41      
Apr 23 01:54 W 6 10 Clear CLR 47 39     74% 44   30.41 30.41      
Apr 23 00:54 WSW 3 10 Clear CLR 49 36     61% 48   30.41 30.41      
Apr 22 22:54 SSW 6 10 Clear CLR 50 34     54% 48   30.4 30.4      
Apr 22 21:54 SSW 7 10 Clear CLR 52 33     48%     30.4 30.39      
Apr 22 20:54 S 9 10 Clear CLR 57 33     40%     30.37 30.37      
Apr 22 19:54 SSW 8 10 Mostly Clear FEW250 62 27     26%     30.34 30.34      
Apr 22 18:54 SW 9 10 Mostly Clear FEW250 64 25     23%     30.33 30.33      
Apr 22 17:54 SW 7 10 Mostly Clear FEW250 65 22     19%     30.34 30.33      
Apr 22 16:54 SW 10 10 Mostly Clear FEW250 65 22     19%     30.34 30.34      
Apr 22 15:54 S 5 10 Partly Cloudy SCT250 63 23     22%     30.35 30.35      
Apr 22 14:54 S 8 10 Mostly Cloudy BKN250 63 23     22%     30.37 30.37      
Apr 22 13:54 SE 7 10 Mostly Cloudy FEW230 BKN250 63 26     24%     30.4 30.39      
Apr 22 12:54 SSE 7 10 Mostly Cloudy FEW230 BKN260 60 21     22%     30.41 30.4      
Apr 22 11:54 ESE 6 10 Mostly Cloudy FEW220 BKN250 59 21     23%     30.43 30.42      
Apr 22 10:54 E 9 10 Mostly Cloudy BKN250 58 24     27%     30.44 30.43      
Apr 22 09:54 ESE 6 10 Partly Cloudy FEW150 SCT250 56 22     26%     30.44 30.43      
Apr 22 08:54 E 8 10 Mostly Clear FEW150 FEW250 53 24     32%     30.44 30.44      
Apr 22 07:54 Calm 10 Mostly Clear FEW150 FEW250 49 24     37%     30.44 30.44      
Apr 22 06:54 Calm 10 Mostly Clear FEW180 FEW250 46 22     38%     30.44 30.43      
Apr 22 05:54 Calm 10 Partly Cloudy FEW180 SCT250 44 25     47%     30.42 30.42      
Apr 22 03:54 Calm 10 Mostly Cloudy SCT180 BKN260 46 27     47%     30.39 30.38      
Apr 22 02:54 Calm 10 Mostly Cloudy SCT180 BKN260 45 36     71%     30.39 30.39      
Apr 22 01:54 W 3 10 Mostly Cloudy BKN170 BKN260 49 33     54% 48   30.39 30.39      
Apr 22 00:54 NE 5 10 Cloudy OVC180 46 33     60% 44   30.39 30.39      
Apr 21 23:54 Calm 10 Mostly Cloudy BKN180 50 31     48%     30.37 30.37      
Apr 21 22:54 SW 5 10 Mostly Cloudy BKN250 52 31     44%     30.36 30.36      
Apr 21 21:54 SW 7 10 Mostly Cloudy BKN250 54 30     40%     30.36 30.35      
Apr 21 20:54 WSW 9 10 Mostly Cloudy BKN250 55 31     40%     30.35 30.35      
Apr 21 19:54 WSW 13 10 Mostly Cloudy BKN250 57 28     33%     30.34 30.34      
Apr 21 18:54 W 13 10 Cloudy OVC250 58 27     30%     30.32 30.32      
Apr 21 17:54 W 11 10 Cloudy OVC250 59 25     27%     30.32 30.32      
Apr 21 16:54 NW 10 10 Cloudy OVC250 59 25     27%     30.32 30.32      
Apr 21 15:54 W 11 10 Mostly Cloudy BKN260 60 25     26%     30.32 30.32      
Apr 21 14:54 Calm 10 Mostly Cloudy BKN260 58 25     28%     30.35 30.35      
Apr 21 13:54 WNW 7 10 Mostly Cloudy FEW230 BKN260 56 24     29%     30.38 30.37      
Apr 21 12:54 W 5 10 Mostly Cloudy FEW220 BKN260 54 23     30%     30.41 30.4      
Apr 21 11:54 WNW 10 10 Mostly Cloudy FEW220 BKN260 53 23     31%     30.44 30.43      
Apr 21 10:54 N 9 10 Mostly Cloudy SCT230 BKN260 52 24     33%     30.46 30.45      
Apr 21 09:54 WNW 10 10 Mostly Cloudy SCT230 BKN250 49 25     39% 45   30.47 30.46      
Apr 21 08:54 NNW 9 10 Mostly Cloudy BKN250 46 26     45% 41   30.46 30.45      
Apr 21 07:54 NW 3 10 Mostly Cloudy BKN250 42 26     53% 40   30.46 30.46      
Apr 21 06:54 WSW 3 10 Partly Cloudy SCT230 38 25     59% 36   30.45 30.45      
Apr 21 05:54 W 3 10 Mostly Clear FEW250 37 24     59% 35   30.45 30.44      
Apr 21 04:54 W 5 10 Mostly Clear FEW250 38 25     59% 34   30.44 30.43      
Apr 21 03:54 W 5 10 Mostly Clear FEW250 38 25     59% 34   30.44 30.43      
Apr 21 02:54 Calm 10 Clear CLR 39 24     55%     30.42 30.42      
Apr 21 01:54 N 5 10 Clear CLR 39 24     55% 36   30.42 30.41      
Apr 21 00:54 N 6 10 Clear CLR 41 24     51% 37   30.42 30.42      
Apr 20 23:54 N 11 10 Clear CLR 43 23     45% 37   30.41 30.4      
Apr 20 22:54 N 15 10 Clear CLR 44 23     43% 37   30.39 30.38      
Apr 20 21:54 N 15 10 Clear CLR 45 23     42% 38   30.38 30.37      
Apr 20 20:54 N 14 10 Clear CLR 47 23     39% 41   30.35 30.35      
Apr 20 19:54 N 13 10 Clear CLR 49 23     36% 44   30.31 30.3      
Apr 20 18:54 NW 18 10 Mostly Clear FEW060 52 24     33%     30.28 30.27      
Apr 20 17:54 NW 16 10 Mostly Clear FEW060 53 24     32%     30.26 30.26      
Apr 20 16:54 NNW 22 10 Mostly Clear and Windy FEW060 53 24     32%     30.25 30.24      
Apr 20 15:54 NW 20 10 Mostly Clear and Windy FEW060 54 25     32%     30.23 30.22      
Apr 20 14:54 NW 15 10 Mostly Clear FEW050 52 24     33%     30.24 30.23      
Apr 20 13:54 NW 15 10 Mostly Clear FEW050 50 23     34% 45   30.25 30.25      
Apr 20 12:54 WNW 11 10 Mostly Clear FEW048 47 22     37% 42   30.25 30.24      
Apr 20 11:54 NNW 21 10 Mostly Clear and Windy FEW048 47 22     37% 39   30.25 30.24      
Apr 20 10:54 NW 11 10 Mostly Clear FEW048 44 21     40% 38   30.25 30.24      
Apr 20 09:54 NNW 15 10 Mostly Clear FEW048 43 21     41% 36   30.24 30.23      
Apr 20 08:54 NNW 22 10 Partly Cloudy and Windy SCT048 40 21     46% 30   30.23 30.22      
Apr 20 07:54 NW 15 10 Partly Cloudy SCT049 37 20     50% 28   30.23 30.23      
Apr 20 06:54 WNW 13 10 Partly Cloudy SCT049 37 20     50% 29   30.21 30.21      
Apr 20 05:54 WNW 10 10 Mostly Clear FEW049 37 21     52% 30   30.18 30.18      
Apr 20 04:54 WNW 11 10 Mostly Clear FEW044 37 22     54% 29   30.16 30.16      
Apr 20 03:54 NW 14 10 Mostly Clear FEW043 38 22     52% 30   30.15 30.15      
Apr 20 02:54 NW 15 10 Partly Cloudy SCT065 39 22     50% 31   30.13 30.13      
Jun 10 21:54 SSW 6 10 Mostly Clear FEW070 78 58     50%   78 30.05 30.04      
Jun 10 15:54   10 Mostly Clear FEW065 87 53     31%   85 29.99 29.99      
Jun 10 11:54 SW 9 10 Mostly Clear FEW150 FEW280 82 55     40%   81 30.03 30.03      
Jun 10 08:54 WSW 6 10 Mostly Cloudy FEW060 BKN120 BKN280 73 56     55%   73 30.03 30.03      
Jun 08 08:54 6 10 Clear   64 51     63%     30.01 30.01      
Jun 07 16:54 ENE 5 10 Cloudy OVC047 65 48     54%     30.02 30.01      
Jun 07 09:37 ENE 9 10 Cloudy BKN023 OVC040 57 47     69%     30.01        
Jun 06 06:32 NE 8 2 Rain and Fog/Mist SCT004 BKN012 OVC031 61 59     93%     29.7   0